| time (UTC) | temp C | wind direction | speed KPH | gust KPH | rain 1hr cm | rain 24hr cm | rain mn cm | humidity % | barometer mb |
| 20260507172306 | 29 | 213 | 0.0 | 1.6 | 0.00 | 0.00 | 0.00 | 16 | 1011.6 |
| 20260507171802 | 29 | 188 | 0.0 | 0.0 | 0.00 | 0.00 | 0.00 | 16 | 1011.6 |
| 20260507171521 | 29 | 171 | 0.0 | 0.0 | 0.00 | 0.00 | 0.00 | 16 | 1011.6 |
| 20260507171023 | 29 | 175 | 0.0 | 0.0 | 0.00 | 0.00 | 0.00 | 17 | 1011.7 |
| 20260507170302 | 28 | 198 | 0.0 | 3.2 | 0.00 | 0.00 | 0.00 | 17 | 1011.7 |
| 20260507165801 | 28 | 188 | 0.0 | 11.3 | 0.00 | 0.00 | 0.00 | 18 | 1011.8 |
| 20260507165522 | 28 | 177 | 0.0 | 11.3 | 0.00 | 0.00 | 0.00 | 19 | 1011.8 |
| 20260507164801 | 27 | 191 | 0.0 | 1.6 | 0.00 | 0.00 | 0.00 | 21 | 1011.8 |
| 20260507164302 | 27 | 202 | 0.0 | 1.6 | 0.00 | 0.00 | 0.00 | 21 | 1011.8 |
| 20260507163801 | 27 | 240 | 0.0 | 1.6 | 0.00 | 0.00 | 0.00 | 22 | 1011.9 |
| 20260507163523 | 27 | 229 | 0.0 | 1.6 | 0.00 | 0.00 | 0.00 | 22 | 1011.9 |
| 20260507163029 | 27 | 229 | 0.0 | 1.6 | 0.00 | 0.00 | 0.00 | 23 | 1011.9 |
| 20260507162301 | 27 | 232 | 0.0 | 1.6 | 0.00 | 0.00 | 0.00 | 23 | 1012.0 |
| 20260507162018 | 27 | 229 | 0.0 | 1.6 | 0.00 | 0.00 | 0.00 | 23 | 1012.0 |
| 20260507161301 | 26 | 213 | 0.0 | 0.0 | 0.00 | 0.00 | 0.00 | 24 | 1012.0 |
| 20260507160800 | 26 | 187 | 0.0 | 1.6 | 0.00 | 0.00 | 0.00 | 24 | 1012.1 |
| 20260507160301 | 26 | 207 | 0.0 | 11.3 | 0.00 | 0.00 | 0.00 | 24 | 1012.1 |
| 20260507155801 | 26 | 202 | 0.0 | 11.3 | 0.00 | 0.00 | 0.00 | 25 | 1012.0 |
| 20260507155301 | 26 | 210 | 0.0 | 1.6 | 0.00 | 0.00 | 0.00 | 25 | 1012.1 |
| 20260507155246 | 26 | 223 | 0.0 | 1.6 | 0.00 | 0.00 | 0.00 | 25 | 1012.1 |
| 20260507154259 | 26 | 214 | 0.0 | 0.0 | 0.00 | 0.00 | 0.00 | 25 | 1012.1 |
| 20260507153753 | 25 | 202 | 0.0 | 0.0 | 0.00 | 0.00 | 0.00 | 24 | 1012.1 |
| 20260507153510 | 25 | 186 | 0.0 | 0.0 | 0.00 | 0.00 | 0.00 | 26 | 1012.1 |
| 20260507153003 | 25 | 214 | 0.0 | 0.0 | 0.00 | 0.00 | 0.00 | 26 | 1012.1 |
| 20260507152244 | 24 | 208 | 0.0 | 0.0 | 0.00 | 0.00 | 0.00 | 26 | 1012.1 |
| 20260507151744 | 24 | 190 | 0.0 | 0.0 | 0.00 | 0.00 | 0.00 | 26 | 1012.2 |
| 20260507151245 | 24 | 184 | 0.0 | 0.0 | 0.00 | 0.00 | 0.00 | 26 | 1012.3 |
| 20260507150743 | 24 | 184 | 0.0 | 0.0 | 0.00 | 0.00 | 0.00 | 27 | 1012.3 |
| 20260507150241 | 23 | 184 | 0.0 | 0.0 | 0.00 | 0.00 | 0.00 | 27 | 1012.3 |
| 20260507145738 | 23 | 182 | 0.0 | 0.0 | 0.00 | 0.00 | 0.00 | 28 | 1012.3 |
| 20260507145456 | 23 | 182 | 0.0 | 0.0 | 0.00 | 0.00 | 0.00 | 28 | 1012.3 |
| 20260507144735 | 22 | 182 | 0.0 | 0.0 | 0.00 | 0.00 | 0.00 | 29 | 1012.3 |
| 20260507144232 | 22 | 183 | 0.0 | 0.0 | 0.00 | 0.00 | 0.00 | 30 | 1012.3 |
| 20260507143949 | 22 | 183 | 0.0 | 0.0 | 0.00 | 0.00 | 0.00 | 30 | 1012.3 |
| 20260507143230 | 22 | 182 | 0.0 | 0.0 | 0.00 | 0.00 | 0.00 | 30 | 1012.3 |
| 20260507142729 | 21 | 182 | 0.0 | 0.0 | 0.00 | 0.00 | 0.00 | 30 | 1012.3 |
| 20260507142230 | 21 | 182 | 0.0 | 0.0 | 0.00 | 0.00 | 0.00 | 30 | 1012.1 |
| 20260507141730 | 21 | 182 | 0.0 | 3.2 | 0.00 | 0.00 | 0.00 | 30 | 1012.1 |
| 20260507141458 | 21 | 182 | 0.0 | 3.2 | 0.00 | 0.00 | 0.00 | 31 | 1012.1 |
| 20260507140730 | 20 | 182 | 0.0 | 0.0 | 0.00 | 0.00 | 0.00 | 32 | 1012.1 |
| 20260507140230 | 20 | 182 | 0.0 | 0.0 | 0.00 | 0.00 | 0.00 | 33 | 1012.1 |
| 20260507135730 | 20 | 182 | 0.0 | 0.0 | 0.00 | 0.00 | 0.00 | 33 | 1012.0 |
| 20260507135451 | 20 | 182 | 0.0 | 0.0 | 0.00 | 0.00 | 0.00 | 33 | 1012.1 |
| 20260507134722 | 19 | 162 | 0.0 | 0.0 | 0.00 | 0.00 | 0.00 | 32 | 1012.0 |
| 20260507134442 | 19 | 132 | 0.0 | 0.0 | 0.00 | 0.00 | 0.00 | 31 | 1011.9 |
| 20260507133710 | 18 | 153 | 0.0 | 0.0 | 0.00 | 0.00 | 0.00 | 32 | 1011.9 |
| 20260507133204 | 18 | 5 | 0.0 | 0.0 | 0.00 | 0.00 | 0.00 | 31 | 1011.9 |
| 20260507132702 | 18 | 5 | 0.0 | 0.0 | 0.00 | 0.00 | 0.00 | 30 | 1011.9 |
| 20260507132202 | 18 | 5 | 0.0 | 0.0 | 0.00 | 0.00 | 0.00 | 30 | 1011.8 |
| 20260507131702 | 19 | 0 | 0.0 | 0.0 | 0.00 | 0.00 | 0.00 | 30 | 1011.8 |
| 20260507131202 | 19 | 0 | 0.0 | 0.0 | 0.00 | 0.00 | 0.00 | 30 | 1011.7 |
| 20260507130702 | 19 | 0 | 0.0 | 0.0 | 0.00 | 0.00 | 0.00 | 30 | 1011.7 |
| 20260507130421 | 20 | 16 | 0.0 | 0.0 | 0.00 | 0.00 | 0.00 | 29 | 1011.7 |
| 20260507125701 | 20 | 16 | 0.0 | 0.0 | 0.00 | 0.00 | 0.00 | 28 | 1011.7 |
| 20260507125202 | 20 | 16 | 0.0 | 0.0 | 0.00 | 0.00 | 0.00 | 28 | 1011.7 |
| 20260507124702 | 20 | 16 | 0.0 | 0.0 | 0.00 | 0.00 | 0.00 | 28 | 1011.6 |
| 20260507124427 | 20 | 16 | 0.0 | 0.0 | 0.00 | 0.00 | 0.00 | 27 | 1011.6 |
| 20260507123924 | 20 | 16 | 0.0 | 0.0 | 0.00 | 0.00 | 0.00 | 27 | 1011.6 |
| 20260507123650 | 20 | 16 | 0.0 | 0.0 | 0.00 | 0.00 | 0.00 | 28 | 1011.6 |
| 20260507122700 | 20 | 16 | 0.0 | 0.0 | 0.00 | 0.00 | 0.00 | 28 | 1011.5 |
| 20260507122201 | 20 | 16 | 0.0 | 0.0 | 0.00 | 0.00 | 0.00 | 28 | 1011.5 |
| 20260507121702 | 20 | 21 | 0.0 | 0.0 | 0.00 | 0.00 | 0.00 | 28 | 1011.5 |
| 20260507121201 | 20 | 12 | 0.0 | 0.0 | 0.00 | 0.00 | 0.00 | 29 | 1011.4 |
| 20260507120921 | 20 | 5 | 0.0 | 0.0 | 0.00 | 0.00 | 0.00 | 29 | 1011.5 |
| 20260507120158 | 20 | 0 | 0.0 | 0.0 | 0.00 | 0.00 | 0.00 | 29 | 1011.5 |
| 20260507115651 | 20 | 9 | 0.0 | 0.0 | 0.00 | 0.00 | 0.00 | 29 | 1011.5 |
| 20260507115145 | 20 | 347 | 0.0 | 0.0 | 0.00 | 0.00 | 0.00 | 29 | 1011.5 |
| 20260507114646 | 20 | 340 | 0.0 | 0.0 | 0.00 | 0.00 | 0.00 | 29 | 1011.6 |
| 20260507114145 | 20 | 338 | 0.0 | 0.0 | 0.00 | 0.00 | 0.00 | 29 | 1011.6 |
| 20260507113644 | 20 | 0 | 0.0 | 0.0 | 0.00 | 0.00 | 0.00 | 29 | 1011.6 |
| 20260507113143 | 19 | 344 | 0.0 | 0.0 | 0.00 | 0.00 | 0.00 | 29 | 1011.6 |
| 20260507112907 | 19 | 345 | 0.0 | 0.0 | 0.00 | 0.00 | 0.00 | 29 | 1011.6 |
| 20260507112629 | 19 | 355 | 0.0 | 0.0 | 0.00 | 0.00 | 0.00 | 29 | 1011.7 |
| 20260507111640 | 19 | 5 | 0.0 | 0.0 | 0.00 | 0.00 | 0.00 | 30 | 1011.7 |
| 20260507111139 | 19 | 348 | 0.0 | 0.0 | 0.00 | 0.00 | 0.00 | 30 | 1011.7 |
| 20260507110900 | 20 | 10 | 0.0 | 1.6 | 0.00 | 0.00 | 0.00 | 30 | 1011.7 |
| 20260507110358 | 20 | 0 | 0.0 | 1.6 | 0.00 | 0.00 | 0.00 | 30 | 1011.7 |
| 20260507105638 | 19 | 0 | 0.0 | 0.0 | 0.00 | 0.00 | 0.00 | 30 | 1011.8 |
| 20260507105135 | 19 | 355 | 0.0 | 0.0 | 0.00 | 0.00 | 0.00 | 30 | 1011.8 |
| 20260507104633 | 19 | 355 | 0.0 | 0.0 | 0.00 | 0.00 | 0.00 | 30 | 1011.9 |
| 20260507104135 | 19 | 355 | 0.0 | 0.0 | 0.00 | 0.00 | 0.00 | 30 | 1011.9 |
| 20260507103634 | 19 | 355 | 0.0 | 0.0 | 0.00 | 0.00 | 0.00 | 30 | 1011.9 |
| 20260507103133 | 19 | 0 | 0.0 | 0.0 | 0.00 | 0.00 | 0.00 | 30 | 1012.0 |
| 20260507102637 | 19 | 0 | 0.0 | 0.0 | 0.00 | 0.00 | 0.00 | 31 | 1012.0 |
| 20260507102131 | 19 | 0 | 0.0 | 0.0 | 0.00 | 0.00 | 0.00 | 31 | 1012.0 |
| 20260507101630 | 19 | 0 | 0.0 | 0.0 | 0.00 | 0.00 | 0.00 | 30 | 1012.1 |
| 20260507101129 | 19 | 0 | 0.0 | 0.0 | 0.00 | 0.00 | 0.00 | 30 | 1012.1 |
| 20260507100858 | 20 | 0 | 0.0 | 0.0 | 0.00 | 0.00 | 0.00 | 29 | 1012.2 |
| 20260507100130 | 20 | 0 | 0.0 | 0.0 | 0.00 | 0.00 | 0.00 | 29 | 1012.1 |
| 20260507095631 | 20 | 0 | 0.0 | 0.0 | 0.00 | 0.00 | 0.00 | 29 | 1012.2 |
| 20260507095129 | 20 | 0 | 0.0 | 0.0 | 0.00 | 0.00 | 0.00 | 28 | 1012.1 |
| 20260507094630 | 20 | 0 | 0.0 | 0.0 | 0.00 | 0.00 | 0.00 | 28 | 1012.1 |
| 20260507094130 | 20 | 0 | 0.0 | 0.0 | 0.00 | 0.00 | 0.00 | 28 | 1012.1 |
| 20260507093630 | 20 | 0 | 0.0 | 0.0 | 0.00 | 0.00 | 0.00 | 27 | 1012.2 |
| 20260507093129 | 21 | 346 | 0.0 | 0.0 | 0.00 | 0.00 | 0.00 | 27 | 1012.2 |
| 20260507092630 | 22 | 347 | 0.0 | 0.0 | 0.00 | 0.00 | 0.00 | 26 | 1012.2 |
| 20260507092355 | 22 | 348 | 0.0 | 0.0 | 0.00 | 0.00 | 0.00 | 25 | 1012.2 |
| 20260507091851 | 22 | 348 | 0.0 | 0.0 | 0.00 | 0.00 | 0.00 | 25 | 1012.2 |
| 20260507091129 | 22 | 348 | 0.0 | 0.0 | 0.00 | 0.00 | 0.00 | 24 | 1012.1 |
| 20260507090630 | 22 | 348 | 0.0 | 0.0 | 0.00 | 0.00 | 0.00 | 24 | 1012.1 |
| 20260507090129 | 22 | 348 | 0.0 | 0.0 | 0.00 | 0.00 | 0.00 | 24 | 1012.1 |
| 20260507085628 | 22 | 348 | 0.0 | 0.0 | 0.00 | 0.00 | 0.00 | 24 | 1012.2 |
| 20260507085129 | 22 | 300 | 0.0 | 0.0 | 0.00 | 0.00 | 0.00 | 24 | 1012.3 |
| 20260507084629 | 22 | 300 | 0.0 | 0.0 | 0.00 | 0.00 | 0.00 | 24 | 1012.3 |
| 20260507084129 | 22 | 300 | 0.0 | 0.0 | 0.00 | 0.00 | 0.00 | 24 | 1012.3 |
| 20260507083630 | 22 | 288 | 0.0 | 0.0 | 0.00 | 0.00 | 0.00 | 24 | 1012.3 |
| 20260507083129 | 22 | 288 | 0.0 | 0.0 | 0.00 | 0.00 | 0.00 | 24 | 1012.4 |
| 20260507082630 | 22 | 288 | 0.0 | 0.0 | 0.00 | 0.00 | 0.00 | 24 | 1012.5 |
| 20260507082130 | 22 | 288 | 0.0 | 0.0 | 0.00 | 0.00 | 0.00 | 24 | 1012.5 |
| 20260507081629 | 22 | 288 | 0.0 | 0.0 | 0.00 | 0.00 | 0.00 | 24 | 1012.5 |
| 20260507081129 | 22 | 288 | 0.0 | 0.0 | 0.00 | 0.00 | 0.00 | 24 | 1012.5 |
| 20260507080630 | 22 | 288 | 0.0 | 0.0 | 0.00 | 0.00 | 0.00 | 24 | 1012.5 |
| 20260507080130 | 22 | 238 | 0.0 | 0.0 | 0.00 | 0.00 | 0.00 | 24 | 1012.6 |
| 20260507075629 | 22 | 238 | 0.0 | 0.0 | 0.00 | 0.00 | 0.00 | 24 | 1012.6 |
| 20260507075131 | 22 | 238 | 0.0 | 0.0 | 0.00 | 0.00 | 0.00 | 23 | 1012.6 |
| 20260507074629 | 22 | 238 | 0.0 | 0.0 | 0.00 | 0.00 | 0.00 | 23 | 1012.6 |
| 20260507074127 | 23 | 238 | 0.0 | 0.0 | 0.00 | 0.00 | 0.00 | 23 | 1012.6 |
| 20260507073621 | 23 | 238 | 0.0 | 0.0 | 0.00 | 0.00 | 0.00 | 23 | 1012.6 |
| 20260507073115 | 23 | 238 | 0.0 | 0.0 | 0.00 | 0.00 | 0.00 | 23 | 1012.6 |
| 20260507072615 | 23 | 238 | 0.0 | 0.0 | 0.00 | 0.00 | 0.00 | 23 | 1012.5 |
| 20260507072113 | 23 | 238 | 0.0 | 0.0 | 0.00 | 0.00 | 0.00 | 23 | 1012.5 |
| 20260507071613 | 23 | 238 | 0.0 | 0.0 | 0.00 | 0.00 | 0.00 | 23 | 1012.5 |
| 20260507071333 | 23 | 237 | 0.0 | 0.0 | 0.00 | 0.00 | 0.00 | 23 | 1012.5 |
| 20260507070611 | 23 | 238 | 0.0 | 0.0 | 0.00 | 0.00 | 0.00 | 23 | 1012.5 |
| 20260507070337 | 23 | 237 | 0.0 | 0.0 | 0.00 | 0.00 | 0.00 | 23 | 1012.5 |
| 20260507065611 | 23 | 237 | 0.0 | 0.0 | 0.00 | 0.00 | 0.00 | 23 | 1012.5 |
| 20260507065111 | 23 | 238 | 0.0 | 0.0 | 0.00 | 0.00 | 0.00 | 23 | 1012.5 |
| 20260507064608 | 23 | 237 | 0.0 | 0.0 | 0.00 | 0.00 | 0.00 | 23 | 1012.5 |
| 20260507064109 | 23 | 232 | 0.0 | 0.0 | 0.00 | 0.00 | 0.00 | 23 | 1012.5 |
| 20260507063608 | 23 | 232 | 0.0 | 0.0 | 0.00 | 0.00 | 0.00 | 24 | 1012.5 |
| 20260507063106 | 23 | 231 | 0.0 | 0.0 | 0.00 | 0.00 | 0.00 | 24 | 1012.6 |
| 20260507062604 | 23 | 232 | 0.0 | 0.0 | 0.00 | 0.00 | 0.00 | 24 | 1012.5 |
| 20260507062103 | 23 | 232 | 0.0 | 0.0 | 0.00 | 0.00 | 0.00 | 24 | 1012.5 |
| 20260507061602 | 23 | 232 | 0.0 | 0.0 | 0.00 | 0.00 | 0.00 | 23 | 1012.5 |
| 20260507061321 | 23 | 232 | 0.0 | 0.0 | 0.00 | 0.00 | 0.00 | 23 | 1012.5 |
| 20260507060601 | 23 | 231 | 0.0 | 0.0 | 0.00 | 0.00 | 0.00 | 23 | 1012.5 |
| 20260507060101 | 23 | 232 | 0.0 | 0.0 | 0.00 | 0.00 | 0.00 | 23 | 1012.5 |
| 20260507055601 | 23 | 232 | 0.0 | 0.0 | 0.00 | 0.00 | 0.00 | 23 | 1012.5 |
| 20260507055101 | 24 | 232 | 0.0 | 0.0 | 0.00 | 0.00 | 0.00 | 23 | 1012.4 |
| 20260507054601 | 24 | 231 | 0.0 | 0.0 | 0.00 | 0.00 | 0.00 | 23 | 1012.5 |
| 20260507054101 | 24 | 232 | 0.0 | 0.0 | 0.00 | 0.00 | 0.00 | 23 | 1012.5 |
| 20260507053601 | 24 | 232 | 0.0 | 0.0 | 0.00 | 0.00 | 0.00 | 23 | 1012.5 |
| 20260507053101 | 24 | 232 | 0.0 | 0.0 | 0.00 | 0.00 | 0.00 | 23 | 1012.5 |
| 20260507052601 | 24 | 232 | 0.0 | 0.0 | 0.00 | 0.00 | 0.00 | 23 | 1012.5 |
| 20260507052101 | 24 | 232 | 0.0 | 0.0 | 0.00 | 0.00 | 0.00 | 23 | 1012.5 |
| 20260507051601 | 24 | 232 | 0.0 | 0.0 | 0.00 | 0.00 | 0.00 | 23 | 1012.5 |
| 20260507051323 | 24 | 232 | 0.0 | 0.0 | 0.00 | 0.00 | 0.00 | 23 | 1012.5 |
| 20260507050602 | 24 | 232 | 0.0 | 0.0 | 0.00 | 0.00 | 0.00 | 23 | 1012.4 |
| 20260507045601 | 24 | 232 | 0.0 | 0.0 | 0.00 | 0.00 | 0.00 | 23 | 1012.4 |
| 20260507045101 | 24 | 232 | 0.0 | 0.0 | 0.00 | 0.00 | 0.00 | 23 | 1012.4 |
| 20260507044601 | 24 | 232 | 0.0 | 0.0 | 0.00 | 0.00 | 0.00 | 23 | 1012.4 |
| 20260507044324 | 24 | 232 | 0.0 | 0.0 | 0.00 | 0.00 | 0.00 | 23 | 1012.3 |
| 20260507043602 | 24 | 232 | 0.0 | 0.0 | 0.00 | 0.00 | 0.00 | 22 | 1012.2 |
| 20260507043550 | 24 | 232 | 0.0 | 0.0 | 0.00 | 0.00 | 0.00 | 22 | 1012.3 |
| 20260507042822 | 25 | 232 | 0.0 | 0.0 | 0.00 | 0.00 | 0.00 | 22 | 1012.2 |
| 20260507042054 | 25 | 232 | 0.0 | 0.0 | 0.00 | 0.00 | 0.00 | 22 | 1012.1 |
| 20260507041552 | 25 | 232 | 0.0 | 0.0 | 0.00 | 0.00 | 0.00 | 22 | 1012.0 |
| 20260507041049 | 25 | 232 | 0.0 | 0.0 | 0.00 | 0.00 | 0.00 | 22 | 1012.0 |
| 20260507040548 | 25 | 232 | 0.0 | 0.0 | 0.00 | 0.00 | 0.00 | 22 | 1011.9 |
| 20260507040046 | 25 | 232 | 0.0 | 0.0 | 0.00 | 0.00 | 0.00 | 22 | 1011.8 |
| 20260507035544 | 25 | 232 | 0.0 | 0.0 | 0.00 | 0.00 | 0.00 | 22 | 1011.8 |
| 20260507035042 | 25 | 232 | 0.0 | 0.0 | 0.00 | 0.00 | 0.00 | 22 | 1011.7 |
| 20260507034539 | 25 | 232 | 0.0 | 0.0 | 0.00 | 0.00 | 0.00 | 22 | 1011.7 |
| 20260507034038 | 25 | 232 | 0.0 | 0.0 | 0.00 | 0.00 | 0.00 | 22 | 1011.6 |
| 20260507033538 | 25 | 232 | 0.0 | 0.0 | 0.00 | 0.00 | 0.00 | 23 | 1011.7 |
| 20260507033301 | 25 | 232 | 0.0 | 0.0 | 0.00 | 0.00 | 0.00 | 23 | 1011.6 |
| 20260507032535 | 25 | 232 | 0.0 | 0.0 | 0.00 | 0.00 | 0.00 | 23 | 1011.4 |
| 20260507032036 | 25 | 232 | 0.0 | 0.0 | 0.00 | 0.00 | 0.00 | 22 | 1011.4 |
| 20260507031536 | 25 | 232 | 0.0 | 0.0 | 0.00 | 0.00 | 0.00 | 22 | 1011.3 |
| 20260507031033 | 25 | 232 | 0.0 | 0.0 | 0.00 | 0.00 | 0.00 | 22 | 1011.3 |
| 20260507030757 | 25 | 232 | 0.0 | 0.0 | 0.00 | 0.00 | 0.00 | 22 | 1011.2 |
| 20260507030034 | 26 | 232 | 0.0 | 0.0 | 0.00 | 0.00 | 0.00 | 22 | 1011.1 |
| 20260507025533 | 26 | 232 | 0.0 | 0.0 | 0.00 | 0.00 | 0.00 | 22 | 1011.0 |
| 20260507025034 | 26 | 232 | 0.0 | 0.0 | 0.00 | 0.00 | 0.00 | 22 | 1010.9 |
| 20260507024532 | 26 | 232 | 0.0 | 0.0 | 0.00 | 0.00 | 0.00 | 22 | 1010.8 |
| 20260507024031 | 26 | 232 | 0.0 | 0.0 | 0.00 | 0.00 | 0.00 | 21 | 1010.8 |
| 20260507023750 | 26 | 230 | 0.0 | 0.0 | 0.00 | 0.00 | 0.00 | 21 | 1010.8 |
| 20260507023031 | 26 | 229 | 0.0 | 0.0 | 0.00 | 0.00 | 0.00 | 21 | 1010.8 |
| 20260507022531 | 26 | 229 | 0.0 | 0.0 | 0.00 | 0.00 | 0.00 | 21 | 1010.7 |
| 20260507022251 | 26 | 217 | 0.0 | 0.0 | 0.00 | 0.00 | 0.00 | 21 | 1010.7 |
| 20260507021532 | 27 | 221 | 0.0 | 0.0 | 0.00 | 0.00 | 0.00 | 21 | 1010.7 |
| 20260507021029 | 27 | 221 | 0.0 | 0.0 | 0.00 | 0.00 | 0.00 | 21 | 1010.7 |
| 20260507020530 | 27 | 238 | 0.0 | 0.0 | 0.00 | 0.00 | 0.00 | 20 | 1010.7 |
| 20260507020029 | 27 | 211 | 0.0 | 1.6 | 0.00 | 0.00 | 0.00 | 20 | 1010.6 |
| 20260507015530 | 27 | 200 | 0.0 | 1.6 | 0.00 | 0.00 | 0.00 | 20 | 1010.6 |
| 20260507015029 | 27 | 232 | 0.0 | 0.0 | 0.00 | 0.00 | 0.00 | 20 | 1010.4 |
| 20260507014529 | 27 | 221 | 0.0 | 0.0 | 0.00 | 0.00 | 0.00 | 20 | 1010.6 |
| 20260507014030 | 27 | 224 | 0.0 | 0.0 | 0.00 | 0.00 | 0.00 | 20 | 1010.4 |
| 20260507013748 | 28 | 227 | 0.0 | 0.0 | 0.00 | 0.00 | 0.00 | 20 | 1010.3 |
| 20260507013030 | 28 | 227 | 0.0 | 0.0 | 0.00 | 0.00 | 0.00 | 20 | 1010.3 |
| 20260507012529 | 28 | 214 | 0.0 | 1.6 | 0.00 | 0.00 | 0.00 | 19 | 1010.4 |
| 20260507012031 | 28 | 207 | 0.0 | 1.6 | 0.00 | 0.00 | 0.00 | 19 | 1010.3 |
| 20260507011529 | 28 | 231 | 0.0 | 0.0 | 0.00 | 0.00 | 0.00 | 19 | 1010.3 |
| 20260507011031 | 28 | 221 | 0.0 | 0.0 | 0.00 | 0.00 | 0.00 | 19 | 1010.3 |
| 20260507010529 | 28 | 209 | 0.0 | 0.0 | 0.00 | 0.00 | 0.00 | 19 | 1010.3 |
| 20260507010029 | 28 | 227 | 0.0 | 0.0 | 0.00 | 0.00 | 0.00 | 19 | 1010.3 |
| 20260507005530 | 28 | 220 | 0.0 | 4.8 | 0.00 | 0.00 | 0.00 | 19 | 1010.4 |
| 20260507005029 | 28 | 236 | 0.0 | 4.8 | 0.00 | 0.00 | 0.00 | 19 | 1010.3 |
| 20260507004529 | 28 | 257 | 0.0 | 0.0 | 0.00 | 0.00 | 0.00 | 19 | 1010.3 |
| 20260507004030 | 28 | 229 | 0.0 | 0.0 | 0.00 | 0.00 | 0.00 | 19 | 1010.3 |
| 20260507003530 | 28 | 228 | 0.0 | 1.6 | 0.00 | 0.00 | 0.00 | 19 | 1010.3 |
| 20260507003029 | 28 | 240 | 0.0 | 1.6 | 0.00 | 0.00 | 0.00 | 19 | 1010.3 |
| 20260507002528 | 28 | 228 | 0.0 | 0.0 | 0.00 | 0.00 | 0.00 | 19 | 1010.3 |
| 20260507002519 | 28 | 115 | 0.0 | 0.0 | 0.00 | 0.00 | 0.00 | 19 | 1010.2 |
| 20260507001529 | 28 | 209 | 0.0 | 0.0 | 0.00 | 0.00 | 0.00 | 19 | 1010.3 |
| 20260507001025 | 28 | 205 | 0.0 | 1.6 | 0.00 | 0.00 | 0.00 | 19 | 1010.3 |
| 20260507000519 | 28 | 196 | 0.0 | 1.6 | 0.00 | 0.00 | 0.00 | 19 | 1010.3 |
| 20260507000013 | 28 | 198 | 0.0 | 0.0 | 0.00 | 0.00 | 0.00 | 19 | 1010.3 |
| 20260506235510 | 28 | 202 | 0.0 | 1.6 | 0.00 | 0.00 | 0.00 | 19 | 1010.3 |
| 20260506235229 | 28 | 233 | 0.0 | 3.2 | 0.00 | 0.00 | 0.00 | 19 | 1010.3 |
| 20260506234511 | 28 | 244 | 0.0 | 3.2 | 0.00 | 0.00 | 0.00 | 19 | 1010.3 |
| 20260506234007 | 28 | 234 | 0.0 | 1.6 | 0.00 | 0.00 | 0.00 | 19 | 1010.3 |
| 20260506233507 | 28 | 267 | 0.0 | 1.6 | 0.00 | 0.00 | 0.00 | 19 | 1010.4 |
| 20260506233008 | 28 | 242 | 0.0 | 1.6 | 0.00 | 0.00 | 0.00 | 19 | 1010.6 |
| 20260506232507 | 28 | 249 | 0.0 | 1.6 | 0.00 | 0.00 | 0.00 | 19 | 1010.6 |
| 20260506232223 | 28 | 289 | 0.0 | 1.6 | 0.00 | 0.00 | 0.00 | 18 | 1010.6 |
| 20260506231503 | 28 | 261 | 0.0 | 3.2 | 0.00 | 0.00 | 0.00 | 19 | 1010.6 |
| 20260506231222 | 28 | 281 | 0.0 | 3.2 | 0.00 | 0.00 | 0.00 | 18 | 1010.7 |
| 20260506230501 | 28 | 142 | 0.0 | 1.6 | 0.00 | 0.00 | 0.00 | 19 | 1010.8 |
| 20260506230001 | 29 | 188 | 0.0 | 0.0 | 0.00 | 0.00 | 0.00 | 19 | 1010.8 |
| 20260506225502 | 28 | 197 | 0.0 | 1.6 | 0.00 | 0.00 | 0.00 | 19 | 1010.9 |
| 20260506225002 | 28 | 202 | 0.0 | 1.6 | 0.00 | 0.00 | 0.00 | 18 | 1010.9 |
| 20260506224501 | 28 | 233 | 0.0 | 3.2 | 0.00 | 0.00 | 0.00 | 19 | 1010.9 |
| 20260506224001 | 28 | 198 | 0.0 | 6.4 | 0.00 | 0.00 | 0.00 | 19 | 1011.0 |
| 20260506223501 | 28 | 212 | 0.0 | 6.4 | 0.00 | 0.00 | 0.00 | 19 | 1011.0 |
| 20260506223001 | 28 | 138 | 0.0 | 6.4 | 0.00 | 0.00 | 0.00 | 19 | 1011.1 |
| 20260506222656 | 28 | 210 | 0.0 | 1.6 | 0.00 | 0.00 | 0.00 | 19 | 1011.3 |
| 20260506222643 | 28 | 196 | 0.0 | 6.4 | 0.00 | 0.00 | 0.00 | 19 | 1011.2 |
| 20260506222424 | 28 | 172 | 0.0 | 1.6 | 0.00 | 0.00 | 0.00 | 19 | 1011.3 |
| 20260506221002 | 28 | 215 | 0.0 | 1.6 | 0.00 | 0.00 | 0.00 | 19 | 1011.4 |
| 20260506220501 | 28 | 210 | 0.0 | 9.7 | 0.00 | 0.00 | 0.00 | 19 | 1011.4 |
| 20260506220000 | 28 | 278 | 0.0 | 9.7 | 0.00 | 0.00 | 0.00 | 19 | 1011.5 |
| 20260506215724 | 28 | 288 | 0.0 | 1.6 | 0.00 | 0.00 | 0.00 | 19 | 1011.6 |
| 20260506215001 | 28 | 187 | 0.0 | 1.6 | 0.00 | 0.00 | 0.00 | 19 | 1011.6 |
| 20260506214501 | 28 | 202 | 0.0 | 16.1 | 0.00 | 0.00 | 0.00 | 19 | 1011.7 |
| 20260506214001 | 28 | 167 | 0.0 | 16.1 | 0.00 | 0.00 | 0.00 | 20 | 1011.8 |
| 20260506213726 | 27 | 217 | 0.0 | 1.6 | 0.00 | 0.00 | 0.00 | 20 | 1011.8 |
| 20260506213001 | 27 | 286 | 0.0 | 3.2 | 0.00 | 0.00 | 0.00 | 20 | 1012.0 |
| 20260506212501 | 27 | 244 | 0.0 | 3.2 | 0.00 | 0.00 | 0.00 | 20 | 1012.1 |
| 20260506212223 | 28 | 268 | 0.0 | 0.0 | 0.00 | 0.00 | 0.00 | 20 | 1012.1 |
| 20260506211948 | 27 | 236 | 0.0 | 3.2 | 0.00 | 0.00 | 0.00 | 20 | 1012.2 |
| 20260506211001 | 27 | 202 | 0.0 | 3.2 | 0.00 | 0.00 | 0.00 | 20 | 1012.3 |
| 20260506210726 | 27 | 155 | 0.0 | 6.4 | 0.00 | 0.00 | 0.00 | 20 | 1012.4 |
| 20260506210001 | 27 | 267 | 0.0 | 6.4 | 0.00 | 0.00 | 0.00 | 20 | 1012.5 |
| 20260506205455 | 27 | 212 | 0.0 | 4.8 | 0.00 | 0.00 | 0.00 | 21 | 1012.6 |
| 20260506205223 | 27 | 203 | 0.0 | 17.7 | 0.00 | 0.00 | 0.00 | 21 | 1012.7 |
| 20260506204717 | 27 | 159 | 0.0 | 17.7 | 0.00 | 0.00 | 0.00 | 21 | 1012.6 |
| 20260506204222 | 27 | 213 | 1.6 | 19.3 | 0.00 | 0.00 | 0.00 | 21 | 1012.8 |
| 20260506203453 | 27 | 168 | 0.0 | 19.3 | 0.00 | 0.00 | 0.00 | 21 | 1012.8 |
| 20260506202953 | 26 | 180 | 0.0 | 0.0 | 0.00 | 0.00 | 0.00 | 23 | 1012.9 |
| 20260506202453 | 26 | 109 | 0.0 | 1.6 | 0.00 | 0.00 | 0.00 | 21 | 1012.8 |
| 20260506201953 | 26 | 121 | 0.0 | 1.6 | 0.00 | 0.00 | 0.00 | 21 | 1012.9 |
| 20260506201451 | 27 | 201 | 0.0 | 1.6 | 0.00 | 0.00 | 0.00 | 21 | 1013.0 |
| 20260506200950 | 26 | 243 | 0.0 | 1.6 | 0.00 | 0.00 | 0.00 | 22 | 1013.2 |
| 20260506200450 | 26 | 302 | 0.0 | 12.9 | 0.00 | 0.00 | 0.00 | 23 | 1013.2 |
| 20260506195949 | 26 | 265 | 0.0 | 12.9 | 0.00 | 0.00 | 0.00 | 22 | 1013.3 |
| 20260506195449 | 26 | 233 | 0.0 | 0.0 | 0.00 | 0.00 | 0.00 | 22 | 1013.3 |
| 20260506195210 | 26 | 134 | 0.0 | 0.0 | 0.00 | 0.00 | 0.00 | 22 | 1013.3 |
| 20260506194445 | 26 | 175 | 0.0 | 14.5 | 0.00 | 0.00 | 0.00 | 22 | 1013.4 |
| 20260506193944 | 26 | 198 | 0.0 | 14.5 | 0.00 | 0.00 | 0.00 | 23 | 1013.4 |
| 20260506193442 | 26 | 328 | 0.0 | 1.6 | 0.00 | 0.00 | 0.00 | 22 | 1013.5 |
| 20260506192941 | 26 | 299 | 0.0 | 3.2 | 0.00 | 0.00 | 0.00 | 22 | 1013.6 |
| 20260506192442 | 26 | 213 | 0.0 | 3.2 | 0.00 | 0.00 | 0.00 | 23 | 1013.6 |
| 20260506191941 | 26 | 284 | 0.0 | 6.4 | 0.00 | 0.00 | 0.00 | 23 | 1013.5 |
| 20260506191439 | 25 | 290 | 0.0 | 6.4 | 0.00 | 0.00 | 0.00 | 22 | 1013.6 |
| 20260506190938 | 25 | 321 | 0.0 | 0.0 | 0.00 | 0.00 | 0.00 | 23 | 1013.7 |
| 20260506190437 | 25 | 147 | 0.0 | 0.0 | 0.00 | 0.00 | 0.00 | 23 | 1013.7 |
| 20260506185936 | 25 | 215 | 0.0 | 0.0 | 0.00 | 0.00 | 0.00 | 23 | 1013.8 |
| 20260506185706 | 25 | 349 | 0.0 | 4.8 | 0.00 | 0.00 | 0.00 | 23 | 1013.8 |
| 20260506184936 | 26 | 261 | 0.0 | 4.8 | 0.00 | 0.00 | 0.00 | 23 | 1013.9 |
| 20260506184436 | 26 | 196 | 0.0 | 3.2 | 0.00 | 0.00 | 0.00 | 23 | 1013.9 |
| 20260506183937 | 26 | 190 | 0.0 | 6.4 | 0.00 | 0.00 | 0.00 | 24 | 1014.0 |
| 20260506183436 | 25 | 184 | 0.0 | 6.4 | 0.00 | 0.00 | 0.00 | 24 | 1014.1 |
| 20260506183153 | 25 | 203 | 0.0 | 3.2 | 0.00 | 0.00 | 0.00 | 24 | 1014.1 |
| 20260506182433 | 25 | 191 | 0.0 | 3.2 | 0.00 | 0.00 | 0.00 | 26 | 1014.2 |
| 20260506182154 | 25 | 155 | 0.0 | 1.6 | 0.00 | 0.00 | 0.00 | 25 | 1014.3 |
| 20260506181433 | 25 | 250 | 0.0 | 1.6 | 0.00 | 0.00 | 0.00 | 26 | 1014.3 |
| 20260506180932 | 24 | 229 | 0.0 | 1.6 | 0.00 | 0.00 | 0.00 | 26 | 1014.4 |
| 20260506180432 | 25 | 253 | 0.0 | 4.8 | 0.00 | 0.00 | 0.00 | 26 | 1014.4 |
| 20260506175932 | 24 | 204 | 0.0 | 11.3 | 0.00 | 0.00 | 0.00 | 27 | 1014.4 |
| 20260506175434 | 24 | 165 | 0.0 | 11.3 | 0.00 | 0.00 | 0.00 | 27 | 1014.5 |
| 20260506175151 | 24 | 254 | 0.0 | 1.6 | 0.00 | 0.00 | 0.00 | 27 | 1014.5 |
| 20260506174431 | 24 | 267 | 0.0 | 0.0 | 0.00 | 0.00 | 0.00 | 28 | 1014.5 |
| 20260506173930 | 23 | 202 | 0.0 | 0.0 | 0.00 | 0.00 | 0.00 | 28 | 1014.6 |
| 20260506173431 | 23 | 265 | 0.0 | 1.6 | 0.00 | 0.00 | 0.00 | 28 | 1014.6 |
| 20260506172931 | 23 | 237 | 0.0 | 1.6 | 0.00 | 0.00 | 0.00 | 28 | 1014.6 |